Location: Cz?stochówka
(50.8142°N, 19.0915°E)
Time: 07:00:08
(UTC+00:00)

USA 307 - Pass Details

Date: 13 January 2026
Orbit: 495 x 502 km, 54.0° (Epoch: 10 March)

Event Time Altitude Azimuth Distance (km) Brightness Sun altitude
Exits shadow 04:30:52 48° 335° (NNW) 664 2.9 -19.8°
Maximum altitude 04:31:23 52° 3° (N) 633 3.0 -19.7°
Drops below altitude 10° 04:35:16 10° 81° (E) 1,690 6.4 -19.1°
Sets 04:37:27 0° 86° (E) 2,515 7.6 -18.8°
